Aérodrome :
LOGIN :

S'inscrire | Disclaimer

   EN    FR    IT 

 










Légende :    VFR   VFR Marginal   IFR   IFR Intensif   IFR Très Intensif
Visi : 
Plafond : 
>= 8 km
>= 3000ft
5 à 8 km
1000 à 3000 ft
1500m à 5 km
500 à 1000 ft
800 à 1500m
200 à 500 ft
< 800m
< 200 ft
Symboles :   Orages  Brouillard  Fortes neiges  Fortes précipitations  Vent > 20 kt
SIGMETs :   Divers  Orages  Givrage  Turbulence  Onde Orograph.  Cendres Volcan.






- Altitude de l'aérodrome : 184 ft
- Code IATA : BRU


EBBR - Bruxelles

DERNIER METAR :
  • 280820Z 05009KT 020V080 CAVOK 15/05 Q1034 NOSIG

METARs EXPIRÉS :
  • 280750Z 06008KT CAVOK 15/05 Q1034 NOSIG
  • 280720Z 06008KT 030V090 CAVOK 14/06 Q1034 NOSIG
  • 280650Z 07008KT 040V100 CAVOK 13/06 Q1034 NOSIG
  • 280620Z 08007KT 050V110 CAVOK 12/06 Q1034 NOSIG
  • 280550Z 06006KT 040V100 CAVOK 11/06 Q1034 NOSIG

TAF TAF EBBR
Valide du 28 à 06h jusqu'au 29 à 12h UTC


280500Z 2806/2912 05010KT CAVOK



MET'MAP, la Météo Aéronautique d'un coup d'oeil ! - Copyright ORBIFLY Décembre 2007 - Disclaimer

ORBIFLY MET'MAP TEAM :

Programmation & Développement : Alexandra Zaïnal
Sur une idée originale de : Baudouin d'Aumeries
Assistance à la programmation : Marc-Olivier Méhu
Soutien technique & logistique : Manuel Goepfert

Contact : metmap@orbifly.com




SOURCES & CREDITS :

   NOAA